[Iaude] MPEC E05: 2024 DW1 [a=0.98,e=0.64,i=3.6,H=23.9]

mpec at cfa.harvard.edu mpec at cfa.harvard.edu
Fri Mar 1 14:20:49 EST 2024


M.P.E.C. 2024-E05                                 Issued 2024 March 1, 19:19 UT

     The Minor Planet Electronic Circulars contain information on unusual
         minor planets, routine data on comets and natural satellites,
         and occasional editorial announcements.  They are published
    on behalf of Division F of the International Astronomical Union by the
          Minor Planet Center, Smithsonian Astrophysical Observatory,
                          Cambridge, MA 02138, U.S.A.
			  
             Prepared using the Tamkin Foundation Computer Network

                              MPC at CFA.HARVARD.EDU
            URL https://www.minorplanetcenter.net/    ISSN 1523-6714

                                    2024 DW1                                    


Observations:
     K24D01W  C2024 02 09.54052512 09 53.721+02 11 09.96         22.55GVEE005F52
     K24D01W  C2024 02 09.56419812 09 53.443+02 11 08.41         23.68GVEE005F52
     K24D01W  C2024 02 09.57603512 09 53.240+02 11 08.36         23.42GVEE005F52
     K24D01W  C2024 02 17.52582912 06 35.202+02 19 06.33         22.86GVEE005F51
     K24D01W  C2024 02 17.53836312 06 34.331+02 19 08.19         21.90GVEE005F51
     K24D01W  C2024 02 17.55016812 06 33.540+02 19 10.49         22.03GVEE005F51
     K24D01W  C2024 02 17.55093012 06 33.480+02 19 10.13         22.70GVEE005F51
     K24D01W  C2024 02 17.56675212 06 32.410+02 19 13.06         22.21GVEE005F51
     K24D01W  C2024 02 17.56752512 06 32.348+02 19 12.91         22.75GVEE005F51
     K24D01W* C2024 02 29.39549711 31 36.595+04 27 34.73         19.3 GVEE005U68
     K24D01W  C2024 02 29.39883911 31 34.906+04 27 42.13         19.3 GVEE005U68
     K24D01W  C2024 02 29.41668211 31 26.085+04 28 12.27         19.2 GVEE005U68
     K24D01W  C2024 02 29.42002311 31 24.489+04 28 18.32         19.2 GVEE005U68
     K24D01W KC2024 02 29.94705211 27 06.936+04 43 53.00         18.7 GVEE005J95
     K24D01W KC2024 02 29.94873511 27 06.014+04 43 56.21         18.8 GVEE005J95
     K24D01W KC2024 02 29.95491011 27 02.594+04 44 08.27         18.9 GVEE005J95
     K24D01W KC2024 02 29.95949811 27 00.048+04 44 16.94         18.7 GVEE005J95
     K24D01W KB2024 02 29.98326711 26 46.208+04 45 04.50         18.5 GXEE005B72
     K24D01W KB2024 02 29.98894011 26 43.020+04 45 15.49         18.7 GXEE005B72
     K24D01W KB2024 02 29.99500711 26 39.620+04 45 27.41         18.6 GXEE005B72
     K24D01W KB2024 03 01.00089011 26 36.314+04 45 38.84         18.6 GXEE005B72
     K24D01W KB2024 03 01.03070511 26 20.09 +04 46 46.0          18.9 GXEE005958
     K24D01W KB2024 03 01.03694211 26 16.53 +04 46 58.1          18.7 GXEE005958
     K24D01W KB2024 03 01.04321411 26 12.92 +04 47 10.9          18.7 GXEE005958
     K24D01W KC2024 03 01.15578411 25 14.80 +04 51 00.3          19.0 GVEE005H21
     K24D01W KC2024 03 01.15858411 25 13.14 +04 51 06.0          19.1 GVEE005H21
     K24D01W KC2024 03 01.16138211 25 11.52 +04 51 11.8          19.1 GVEE005H21
     K24D01W KC2024 03 01.16417811 25 09.88 +04 51 17.6          19.1 GVEE005H21
     K24D01W  C2024 03 01.17955 11 25 02.31 +04 51 52.9          17.9 VtEE005V27
     K24D01W  C2024 03 01.18375 11 24 59.74 +04 52 00.9          20.6 VtEE005V27
     K24D01W  C2024 03 01.18935 11 24 56.43 +04 52 13.8          19.4 VtEE005V27
     K24D01W KC2024 03 01.18992211 24 56.25 +04 52 15.8          20.2 GXEE005858
     K24D01W KC2024 03 01.20410511 24 47.90 +04 52 45.4          19.2 GXEE005858
     K24D01W KC2024 03 01.21782911 24 39.79 +04 53 13.7          19.4 GXEE005858

Observer details:
858 Tebbutt Observatory, Edgewood.  Observer F. B. Zoltowski.  0.16-m f/7
    Refractor + CCD.
958 Observatoire de Dax.  Observer P. Dupouy.  0.50-m f/4.5 Reflector + CMO.
B72 Soerth Observatory.  Observer B. Koch.  0.36-m f/7.6 reflector + CMO.
F51 Pan-STARRS 1, Haleakala.  Observers J. Herman, T. Lowe, P. Minguez, A.
    Schultz, I. Smith.  Measurers K. Chambers, T. de Boer, J. Fairlamb, H.
    Gao, M. Huber, C.-C. Lin, E. Magnier, Y. Ramanjooloo, R. Wainscoat, R.
    Weryk.  1.8-m Ritchey-Chretien + CCD.
F52 Pan-STARRS 2, Haleakala.  Observers J. Herman, T. Lowe, P. Minguez, A.
    Schultz, I. Smith.  Measurers K. Chambers, T. de Boer, J. Fairlamb, H.
    Gao, M. Huber, C.-C. Lin, E. Magnier, Y. Ramanjooloo, R. Wainscoat, R.
    Weryk.  1.8-m Ritchey-Chretien + CCD.
H21 Astronomical Research Observatory, Westfield.  Observer R. Holmes.
    Measurers T. Linder, R. Holmes, L. Horn.  0.76-m f/3.0 astrograph + CCD.
J95 Great Shefford.  Observer P. Birtwhistle.  0.41-m f/6.3 Schmidt-Cassegrain
    + CCD.
U68 JPL SynTrack Robotic Telescope, Auberry.  Observers N. Saini, C. Zhai, R.
    Trahan, M. Zhan, M. Shao.  0.28-m Reflector + CCD.
V27 North Mesa Observatory, Los Alamos.  Observer B. K. Kendrick.  0.25-m f/6
    reflector + CCD.

Orbital elements:
2024 DW1                                                 Earth MOID = 0.0048 AU
Epoch 2024 Mar. 31.0 TT = JDT 2460400.5                 MPC                     
M 327.44991              (2000.0)            P               Q                  
n   1.01604491     Peri.  314.72411     +0.46158511     +0.88689783             
a   0.9799279      Node   342.73813     -0.79499774     +0.40419492             
e   0.6357777      Incl.    3.62201     -0.39359596     +0.22369332             
P   0.97           H   23.91          G   0.15           U   7                  
Residuals in seconds of arc
240209 F52  0.2-  0.4+    240229 U68  0.7+  0.5+    240301 H21  0.3+  0.1-
240209 F52  0.4+  0.3-    240229 J95  0.0   0.2+    240301 H21  0.2-  0.1-
240209 F52  0.3-  0.0     240229 J95  0.1+  0.1+    240301 H21  0.0   0.1-
240217 F51  0.2+  0.7+    240229 J95  0.1-  0.2+    240301 H21  0.0   0.0
240217 F51  0.1-  0.3+    240229 J95  0.2-  0.1-    240301 V27  0.6+  0.2-
240217 F51  0.2+  0.5+    240229 B72  0.0   0.0     240301 V27  1.2-  0.9-
240217 F51  0.0   0.0     240229 B72  0.1-  0.1-    240301 V27  1.7-  0.3+
240217 F51  0.2+  0.1+    240229 B72  0.1+  0.0     240301 858  0.1+  0.0
240217 F51  0.0   0.2-    240301 B72  0.2+  0.0     240301 858  0.0   0.0
240229 U68 (0.7+  1.7-)   240301 958  0.2-  0.3-    240301 858  0.4+  0.3-
240229 U68  0.1+  0.1+    240301 958  0.1-  0.5-
240229 U68  0.2-  0.1+    240301 958  0.3-  0.1-

Ephemeris:
2024 DW1                 a,e,i = 0.98, 0.64, 4                   q = 0.3569
Date    TT    R. A. (2000) Decl.     Delta      r    Elong.  Phase     V
2024 01 31    12 07 43.9 +02 29 28   0.4608  1.3263   129.4    35.0    24.3
...
2024 02 15    12 08 22.6 +02 13 35   0.2661  1.2137   144.3    28.3    22.7
...
2024 02 23    11 58 37.5 +02 48 00   0.1687  1.1441   154.8    21.6    21.4
...
2024 02 29    11 34 31.7 +04 17 44   0.09908 1.0874   167.0    11.8    19.8
2024 03 01    11 26 36.9 +04 46 47   0.08788 1.0775   170.0     9.1    19.4
2024 03 02    11 16 21.6 +05 23 55   0.07687 1.0675   173.7     5.9    18.9
...
2024 03 08    07 00 00.3 +14 30 21   0.02708 1.0051   116.8    61.8    18.3
...
2024 03 16    01 40 26.9 +03 46 32   0.09311 0.9150    29.7   147.4    26.5
...
2024 03 31    00 52 34.6 +00 56 58   0.2760  0.7242     4.8   173.4

A. U. Tomatic                (C) Copyright 2024 MPC           M.P.E.C. 2024-E05





More information about the Iaude mailing list